Location: Gleizolles
(44.4833°N, 6.7667°E)
Time: 12:26:11
(UTC+00:00)

A-11 Canister half - Pass Details

Date: 16 June 2024
Orbit: 1515 x 1684 km, 47.2° (Epoch: 24 July)

Event Time Altitude Azimuth Distance (km) Brightness Sun altitude
Rises 01:53:44 0° 294° (WNW) 4,802 11.5 -15.0°
Reaches altitude 10° 01:57:09 10° 287° (WNW) 3,789 10.9 -14.7°
Maximum altitude 02:05:36 37° 224° (SW) 2,229 9.3 -13.8°
Drops below altitude 10° 02:13:50 10° 161° (SSE) 3,680 10.7 -12.9°
Sets 02:17:07 0° 154° (SSE) 4,650 11.3 -12.6°
